Time,TemperatureF,DewpointF,PressureIn,WindDirection,WindDirectionDegrees,WindSpeedMPH,WindSpeedGustMPH,Humidity,HourlyPrecipIn,Conditions,Clouds,dailyrainin,SoftwareType,DateUTC
2013-03-22 00:52:00,29.0,27.0,-100.00,WNW,295,0.0,2.0,90,-99.99,,,-99.99,,2013-03-22 04:52:00,
2013-03-22 01:32:00,28.0,26.0,-100.00,West,275,1.0,2.0,92,-99.99,,,-99.99,,2013-03-22 05:32:00,
2013-03-22 01:42:00,28.0,26.0,-100.00,NNW,340,1.0,3.0,92,-99.99,,,-99.99,,2013-03-22 05:42:00,
2013-03-22 01:52:00,29.0,27.0,-100.00,NE,50,2.0,6.0,91,-99.99,,,-99.99,,2013-03-22 05:52:00,
2013-03-22 02:02:00,29.0,26.0,-100.00,ESE,105,2.0,7.0,85,-99.99,,,-99.99,,2013-03-22 06:02:00,
2013-03-22 02:13:00,30.0,24.0,-100.00,NE,55,2.0,7.0,77,-99.99,,,-99.99,,2013-03-22 06:13:00,
2013-03-22 02:22:00,30.0,22.0,-100.00,ENE,70,3.0,10.0,72,-99.99,,,-99.99,,2013-03-22 06:22:00,
2013-03-22 02:32:00,30.0,21.0,-100.00,ENE,65,2.0,8.0,69,-99.99,,,-99.99,,2013-03-22 06:32:00,
2013-03-22 02:43:00,30.0,20.0,-100.00,ENE,65,5.0,8.0,65,-99.99,,,-99.99,,2013-03-22 06:43:00,
2013-03-22 02:52:00,30.0,19.0,-100.00,ENE,65,3.0,9.0,63,-99.99,,,-99.99,,2013-03-22 06:52:00,
2013-03-22 03:03:00,30.0,19.0,-100.00,NE,50,3.0,12.0,61,-99.99,,,-99.99,,2013-03-22 07:03:00,
2013-03-22 03:12:00,30.0,19.0,-100.00,ENE,65,5.0,10.0,61,-99.99,,,-99.99,,2013-03-22 07:12:00,
2013-03-22 03:22:00,30.0,18.0,-100.00,East,80,3.0,12.0,60,-99.99,,,-99.99,,2013-03-22 07:22:00,
2013-03-22 03:32:00,30.0,18.0,-100.00,ENE,65,5.0,12.0,60,-99.99,,,-99.99,,2013-03-22 07:32:00,
2013-03-22 03:42:00,30.0,18.0,-100.00,NE,55,3.0,12.0,59,-99.99,,,-99.99,,2013-03-22 07:42:00,
2013-03-22 03:52:00,30.0,18.0,-100.00,ENE,70,7.0,13.0,59,-99.99,,,-99.99,,2013-03-22 07:52:00,
2013-03-22 04:03:00,30.0,18.0,-100.00,ENE,70,5.0,16.0,59,-99.99,,,-99.99,,2013-03-22 08:03:00,
2013-03-22 04:13:00,30.0,18.0,-100.00,East,90,2.0,9.0,61,-99.99,,,-99.99,,2013-03-22 08:13:00,
2013-03-22 04:22:00,30.0,18.0,-100.00,ENE,70,2.0,10.0,61,-99.99,,,-99.99,,2013-03-22 08:22:00,
2013-03-22 04:32:00,30.0,18.0,-100.00,East,95,2.0,9.0,61,-99.99,,,-99.99,,2013-03-22 08:32:00,
2013-03-22 04:42:00,30.0,18.0,-100.00,ESE,105,3.0,8.0,61,-99.99,,,-99.99,,2013-03-22 08:42:00,
2013-03-22 04:52:00,30.0,18.0,-100.00,ENE,65,2.0,7.0,61,-99.99,,,-99.99,,2013-03-22 08:52:00,
2013-03-22 05:03:00,30.0,18.0,-100.00,ENE,65,2.0,7.0,61,-99.99,,,-99.99,,2013-03-22 09:03:00,
2013-03-22 05:22:00,30.0,18.0,-100.00,East,85,3.0,7.0,61,-99.99,,,-99.99,,2013-03-22 09:22:00,
2013-03-22 06:30:00,29.0,18.0,-100.00,East,80,2.0,7.0,62,-99.99,,,-99.99,,2013-03-22 10:30:00,
2013-03-22 07:12:00,29.0,18.0,-100.00,East,80,2.0,7.0,62,-99.99,,,-99.99,,2013-03-22 11:12:00,
2013-03-22 07:22:00,29.0,18.0,-100.00,East,80,2.0,7.0,62,-99.99,,,-99.99,,2013-03-22 11:22:00,
2013-03-22 07:42:00,29.0,18.0,-100.00,ENE,70,2.0,7.0,63,-99.99,,,-99.99,,2013-03-22 11:42:00,
2013-03-22 07:52:00,28.0,17.0,-100.00,ESE,105,2.0,9.0,63,-99.99,,,-99.99,,2013-03-22 11:52:00,
2013-03-22 08:02:00,29.0,18.0,-100.00,North,10,1.0,6.0,63,-99.99,,,-99.99,,2013-03-22 12:02:00,
2013-03-22 08:12:00,29.0,18.0,-100.00,NE,55,2.0,6.0,63,-99.99,,,-99.99,,2013-03-22 12:12:00,
2013-03-22 08:22:00,29.0,18.0,-100.00,East,100,1.0,5.0,63,-99.99,,,-99.99,,2013-03-22 12:22:00,
2013-03-22 08:32:00,29.0,18.0,-100.00,ENE,60,2.0,6.0,63,-99.99,,,-99.99,,2013-03-22 12:32:00,
2013-03-22 08:42:00,30.0,18.0,-100.00,North,10,3.0,7.0,61,-99.99,,,-99.99,,2013-03-22 12:42:00,
2013-03-22 09:02:00,31.0,19.0,-100.00,NNE,30,1.0,7.0,59,-99.99,,,-99.99,,2013-03-22 13:02:00,
2013-03-22 10:32:00,35.0,17.0,-100.00,NE,50,6.0,10.0,48,-99.99,,,-99.99,,2013-03-22 14:32:00,
2013-03-22 10:43:00,35.0,17.0,-100.00,NE,45,5.0,9.0,47,-99.99,,,-99.99,,2013-03-22 14:43:00,
2013-03-22 10:52:00,35.0,17.0,-100.00,NE,45,5.0,9.0,47,-99.99,,,-99.99,,2013-03-22 14:52:00,
2013-03-22 11:03:00,36.0,17.0,-100.00,ENE,70,3.0,10.0,45,-99.99,,,-99.99,,2013-03-22 15:03:00,
2013-03-22 11:12:00,35.0,16.0,-100.00,NE,55,6.0,12.0,46,-99.99,,,-99.99,,2013-03-22 15:12:00,
2013-03-22 11:22:00,36.0,17.0,-100.00,NNE,20,3.0,10.0,44,-99.99,,,-99.99,,2013-03-22 15:22:00,
2013-03-22 11:33:00,36.0,16.0,-100.00,East,95,3.0,13.0,42,-99.99,,,-99.99,,2013-03-22 15:33:00,
2013-03-22 14:02:00,42.0,16.0,-100.00,NNE,15,5.0,15.0,35,-99.99,,,-99.99,,2013-03-22 18:02:00,
2013-03-22 14:12:00,42.0,16.0,-100.00,NNE,15,5.0,15.0,35,-99.99,,,-99.99,,2013-03-22 18:12:00,
2013-03-22 14:22:00,41.0,15.0,-100.00,ENE,65,8.0,20.0,34,-99.99,,,-99.99,,2013-03-22 18:22:00,
2013-03-22 14:33:00,40.0,14.0,-100.00,ENE,60,7.0,16.0,34,-99.99,,,-99.99,,2013-03-22 18:33:00,
2013-03-22 14:42:00,40.0,15.0,-100.00,East,85,5.0,15.0,36,-99.99,,,-99.99,,2013-03-22 18:42:00,
2013-03-22 14:52:00,40.0,15.0,-100.00,East,85,5.0,10.0,35,-99.99,,,-99.99,,2013-03-22 18:52:00,
2013-03-22 15:02:00,39.0,15.0,-100.00,East,80,8.0,20.0,36,-99.99,,,-99.99,,2013-03-22 19:02:00,
2013-03-22 15:12:00,40.0,15.0,-100.00,ENE,65,6.0,10.0,37,-99.99,,,-99.99,,2013-03-22 19:12:00,
2013-03-22 15:22:00,40.0,15.0,-100.00,ENE,65,6.0,10.0,37,-99.99,,,-99.99,,2013-03-22 19:22:00,
2013-03-22 16:13:00,40.0,18.0,-100.00,NE,50,7.0,18.0,40,-99.99,,,-99.99,,2013-03-22 20:13:00,
2013-03-22 16:22:00,40.0,18.0,-100.00,NE,50,7.0,18.0,40,-99.99,,,-99.99,,2013-03-22 20:22:00,
2013-03-22 16:32:00,39.0,18.0,-100.00,ENE,70,5.0,10.0,41,-99.99,,,-99.99,,2013-03-22 20:32:00,
2013-03-22 16:43:00,39.0,17.0,-100.00,West,260,2.0,13.0,40,-99.99,,,-99.99,,2013-03-22 20:43:00,
2013-03-22 16:52:00,39.0,17.0,-100.00,West,260,2.0,13.0,40,-99.99,,,-99.99,,2013-03-22 20:52:00,
2013-03-22 17:00:00,40.0,16.0,-100.00,NE,45,8.0,17.0,37,-99.99,,,-99.99,,2013-03-22 21:00:00,
2013-03-22 17:03:00,41.0,16.0,-100.00,NE,45,7.0,16.0,37,-99.99,,,-99.99,,2013-03-22 21:03:00,
2013-03-22 17:12:00,41.0,16.0,-100.00,ENE,70,8.0,17.0,36,-99.99,,,-99.99,,2013-03-22 21:12:00,
2013-03-22 17:22:00,42.0,15.0,-100.00,ENE,70,13.0,22.0,34,-99.99,,,-99.99,,2013-03-22 21:22:00,
2013-03-22 17:33:00,40.0,16.0,-100.00,NE,40,5.0,15.0,36,-99.99,,,-99.99,,2013-03-22 21:33:00,
2013-03-22 17:43:00,40.0,16.0,-100.00,NE,45,8.0,17.0,37,-99.99,,,-99.99,,2013-03-22 21:43:00,
2013-03-22 17:53:00,40.0,16.0,-100.00,NE,45,8.0,17.0,37,-99.99,,,-99.99,,2013-03-22 21:53:00,
2013-03-22 20:12:00,36.0,19.0,-100.00,NNE,20,5.0,12.0,49,-99.99,,,-99.99,,2013-03-23 00:12:00,
2013-03-22 20:23:00,36.0,19.0,-100.00,NNE,25,5.0,10.0,49,-99.99,,,-99.99,,2013-03-23 00:23:00,
2013-03-22 20:33:00,36.0,19.0,-100.00,NNE,25,5.0,10.0,49,-99.99,,,-99.99,,2013-03-23 00:33:00,
2013-03-22 20:42:00,35.0,20.0,-100.00,NE,50,3.0,12.0,53,-99.99,,,-99.99,,2013-03-23 00:42:00,
2013-03-22 20:52:00,35.0,20.0,-100.00,NNE,20,3.0,13.0,54,-99.99,,,-99.99,,2013-03-23 00:52:00,
2013-03-22 21:03:00,35.0,20.0,-100.00,West,265,1.0,7.0,55,-99.99,,,-99.99,,2013-03-23 01:03:00,
2013-03-22 21:12:00,35.0,21.0,-100.00,North,10,2.0,8.0,57,-99.99,,,-99.99,,2013-03-23 01:12:00,
2013-03-22 21:22:00,35.0,21.0,-100.00,NNE,15,2.0,9.0,58,-99.99,,,-99.99,,2013-03-23 01:22:00,
2013-03-22 21:32:00,34.0,22.0,-100.00,North,5,2.0,10.0,59,-99.99,,,-99.99,,2013-03-23 01:32:00,
2013-03-22 21:43:00,35.0,21.0,-100.00,NE,45,6.0,12.0,58,-99.99,,,-99.99,,2013-03-23 01:43:00,
2013-03-22 21:52:00,34.0,21.0,-100.00,ENE,70,5.0,10.0,57,-99.99,,,-99.99,,2013-03-23 01:52:00,
2013-03-22 22:02:00,34.0,20.0,-100.00,ENE,65,6.0,14.0,55,-99.99,,,-99.99,,2013-03-23 02:02:00,
2013-03-22 22:12:00,34.0,20.0,-100.00,East,85,2.0,12.0,55,-99.99,,,-99.99,,2013-03-23 02:12:00,
2013-03-22 22:22:00,34.0,19.0,-100.00,NNE,15,2.0,7.0,55,-99.99,,,-99.99,,2013-03-23 02:22:00,
2013-03-22 22:32:00,33.0,19.0,-100.00,NE,50,5.0,9.0,56,-99.99,,,-99.99,,2013-03-23 02:32:00,
2013-03-22 22:42:00,33.0,19.0,-100.00,NE,50,5.0,12.0,55,-99.99,,,-99.99,,2013-03-23 02:42:00,
2013-03-22 22:52:00,33.0,19.0,-100.00,NE,55,3.0,9.0,55,-99.99,,,-99.99,,2013-03-23 02:52:00,
2013-03-22 23:03:00,33.0,19.0,-100.00,ENE,60,2.0,10.0,55,-99.99,,,-99.99,,2013-03-23 03:03:00,
2013-03-22 23:10:00,31.0,18.0,-100.00,North,0,1.0,6.0,58,-99.99,,,-99.99,,2013-03-23 03:10:00,
2013-03-22 23:12:00,33.0,18.0,-100.00,East,95,5.0,16.0,55,-99.99,,,-99.99,,2013-03-23 03:12:00,
2013-03-22 23:23:00,33.0,18.0,-100.00,NE,55,3.0,14.0,54,-99.99,,,-99.99,,2013-03-23 03:23:00,
2013-03-22 23:43:00,32.0,19.0,-100.00,ENE,60,2.0,9.0,57,-99.99,,,-99.99,,2013-03-23 03:43:00,
2013-03-22 23:53:00,31.0,18.0,-100.00,North,0,1.0,6.0,58,-99.99,,,-99.99,,2013-03-23 03:53:00,